TimeCST,TemperatureF,Dew PointF,Humidity,Sea Level PressureIn,VisibilityMPH,Wind Direction,Wind SpeedMPH,Gust SpeedMPH,PrecipitationIn,Events,Conditions,WindDirDegrees,DateUTC
12:00 AM,65,41,30,29.67,,WSW,13.8,,,,,240,2013-05-13 06:00:00
12:00 AM,65.5,41.0,41,29.67,-9999.0,WSW,13.8,-,N/A,,Unknown,240,2013-05-13 06:00:00
1:00 AM,66.9,41.0,39,29.66,-9999.0,West,17.3,-,N/A,,Unknown,260,2013-05-13 07:00:00
2:00 AM,65.3,41.5,42,29.66,-9999.0,West,17.3,-,N/A,,Unknown,260,2013-05-13 08:00:00
3:00 AM,63.1,41.9,46,29.68,-9999.0,West,16.1,-,N/A,,Unknown,260,2013-05-13 09:00:00
4:00 AM,65.5,41.7,42,29.68,-9999.0,West,16.1,21.9,N/A,,Unknown,280,2013-05-13 10:00:00
5:00 AM,62.6,41.0,45,29.70,-9999.0,WNW,16.1,-,N/A,,Unknown,290,2013-05-13 11:00:00
6:00 AM,61,42,38,29.72,,West,13.8,,,,,280,2013-05-13 12:00:00
6:00 AM,61.0,41.7,49,29.72,-9999.0,West,13.8,-,N/A,,Unknown,280,2013-05-13 12:00:00
7:00 AM,63.3,42.8,47,29.74,-9999.0,WNW,13.8,-,N/A,,Unknown,290,2013-05-13 13:00:00
8:00 AM,67.5,42.3,40,29.75,-9999.0,WNW,15.0,20.7,N/A,,Unknown,290,2013-05-13 14:00:00
9:00 AM,69.4,40.5,35,29.76,-9999.0,WNW,17.3,-,N/A,,Unknown,290,2013-05-13 15:00:00
10:00 AM,73.9,41.2,31,29.75,-9999.0,WNW,12.7,-,N/A,,Unknown,290,2013-05-13 16:00:00
11:00 AM,77.5,38.8,25,29.74,-9999.0,West,18.4,27.6,N/A,,Unknown,280,2013-05-13 17:00:00
12:00 PM,81,39,13,29.72,,West,24.2,,,,,280,2013-05-13 18:00:00
12:00 PM,80.6,39.4,23,29.72,-9999.0,West,24.2,32.2,N/A,,Unknown,280,2013-05-13 18:00:00
1:00 PM,81.3,39.6,23,29.70,-9999.0,West,25.3,33.4,N/A,,Unknown,260,2013-05-13 19:00:00
3:00 PM,85.6,38.3,19,29.66,-9999.0,West,25.3,36.8,N/A,,Unknown,270,2013-05-13 21:00:00
4:00 PM,85.6,38.3,19,29.65,-9999.0,West,25.3,39.1,N/A,,Unknown,270,2013-05-13 22:00:00
5:00 PM,84.9,36.5,18,29.63,-9999.0,West,24.2,36.8,N/A,,Unknown,270,2013-05-13 23:00:00
6:00 PM,84,35,9,29.61,,West,26.5,,,,,260,2013-05-14 00:00:00
6:00 PM,84.0,35.1,17,29.61,-9999.0,West,26.5,39.1,N/A,,Unknown,260,2013-05-14 00:00:00
7:00 PM,82.4,34.7,18,29.58,-9999.0,West,21.9,28.8,N/A,,Unknown,260,2013-05-14 01:00:00
8:00 PM,77.0,35.2,22,29.56,-9999.0,West,10.4,-,N/A,,Unknown,270,2013-05-14 02:00:00
9:00 PM,65.3,34.9,32,29.55,-9999.0,WSW,4.6,-,N/A,,Unknown,240,2013-05-14 03:00:00
10:00 PM,60.8,44.4,55,29.52,-9999.0,ESE,3.5,-,N/A,,Unknown,120,2013-05-14 04:00:00
11:00 PM,62.1,52.7,71,29.64,-9999.0,West,27.6,34.5,N/A,,Unknown,270,2013-05-14 05:00:00